Flag for United Kingdom Weather past 2 weeks in Watford, England, United Kingdom

Now
54 °F

Overcast.


Feels Like: 53 °F
Forecast: 50 / 60 °F
Wind: 5 mph from Northwest

Location: Northolt

Current Time: Sep 3, 2015 at 1:41:53 AM

Latest Report: Sep 3, 2015 at 12:50 AM


Visibility: N/A

Pressure: 30.01 "Hg

Humidity: 88%

Dew point: 50 °F

Location of WatfordLocation

Historic Weather in Watford — Graph

°F

Watford temperature yesterday

Maximum temperature yesterday: 64 °F (at 4:50 PM)
Minimum temperature yesterday: 46 °F (at 4:50 AM)
Average temperature yesterday: 55 °F

Past Weeks' High & Low Weather Summary

 TemperatureHumidityPressure
High86 °F (Aug 22, 1:50 PM)100% (Aug 19, 10:50 PM)30.12 "Hg (Aug 19, 10:50 PM)
Low46 °F (Sep 2, 4:50 AM)38% (Aug 22, 3:50 PM)29.42 "Hg (Aug 24, 12:50 PM)
Average62 °F81%29.90 "Hg
* Reported Aug 18 11:50 PM — Sep 2 11:50 PM, Watford, Weather by CustomWeather, © 2015

Note: Actual official high and low records may vary slightly from our data, if they occured in-between our weather recording intervals... More about our weather records

Advertising

Watford weather history for previous 24 hours

 ConditionsComfort  
Time TempWeatherWind HumidityBarometerVisibility
11:50 PM
Wed, Sep 2
54 °FPassing clouds.6 mph88%30.04 "HgN/A
10:50 PM54 °FPassing clouds.3 mph88%30.04 "HgN/A
9:50 PM55 °FPassing clouds.5 mph82%30.04 "HgN/A
8:50 PM57 °FPassing clouds.6 mph77%30.04 "HgN/A
7:50 PM59 °FScattered clouds.2 mph72%30.01 "HgN/A
6:50 PM59 °FPartly sunny.6 mph68%30.01 "HgN/A
5:50 PM64 °FScattered clouds.8 mph56%30.01 "HgN/A
4:50 PM64 °FBroken clouds.12 mph49%30.01 "HgN/A
3:50 PM63 °FBroken clouds.6 mph56%30.04 "HgN/A
2:50 PM63 °FScattered clouds.6 mph64%30.04 "HgN/A
1:50 PM59 °FSprinkles. Scattered clouds.10 mph68%30.04 "HgN/A
12:50 PM63 °FScattered clouds.8 mph59%30.04 "HgN/A
11:50 AM59 °FScattered clouds.10 mph72%30.07 "HgN/A
10:50 AM57 °FScattered clouds.7 mph82%30.07 "HgN/A
9:50 AM55 °FBroken clouds.7 mph88%30.07 "HgN/A
8:50 AM55 °FPartly sunny.6 mph88%30.07 "HgN/A
7:50 AM52 °FPartly sunny.1 mph94%30.07 "HgN/A
6:50 AM48 °FPassing clouds.2 mph94%30.07 "HgN/A
5:50 AM46 °FFog.3 mph100%30.07 "HgN/A
4:50 AM46 °FFog.2 mph100%30.07 "Hg4 mi
3:50 AM48 °FPassing clouds.3 mph94%30.07 "HgN/A
2:50 AM48 °FClear.5 mph94%30.07 "HgN/A
1:50 AM48 °FClear.1 mph100%30.07 "Hg3 mi
Weather by CustomWeather, © 2015

See weather overviewHow to use our weather pages